Location: Saint-Hippolyte
(43.6394°N, 4.7559°E)
Time: 15:34:17
(UTC+00:00)

USA 307 - Pass Details

Date: 24 October 2020
Orbit: 569 x 579 km, 54.0° (Epoch: 23 November)

Event Time Altitude Azimuth Distance (km) Brightness Sun altitude
Rises 18:26:27 0° 305° (NW) 2,788 7.4 -19.4°
Reaches altitude 10° 18:29:01 10° 319° (NW) 1,886 6.1 -19.8°
Maximum altitude 18:32:38 26° 16° (NNE) 1,154 4.3 -20.5°
Enters shadow 18:32:54 26° 23° (NNE) 1,159 4.2 -20.6°
